Find Starlink 34985

NORAD ID: 65379 Int'l Des: 2025-191 Owner: SPXS Country: US Constellation: starlink operational
LEOCIRCULARRETROGRADESSO

現在のビュー

3D地球を読み込み中...

About Starlink 34985

Starlink 34985 (NORAD 65379) is a starlink constellation satellite (v2 mini) launched Aug 30, 2025 by SPXS of US. It operates in LEO, CIRCULAR, RETROGRADE, SSO orbit with a mass of 575.00 kg.

次回通過

Passes for default location (London). Set your location on the main map for personalized predictions.

高度履歴

Loading altitude history...

軌道要素

1 65379U 25191A 26263.60159498 .00007274 00000-0 22739-3 0 9995
2 65379 97.2849 129.6147 0002002 90.0111 270.1361 15.33451122 59659
Epoch: Sep 20, 2026 • Age: 10 hours

現在のステータス

高度 477.4 km
遠地点 / 近地点 N/A
速度 7.63 km/s
衛星直下点 78.45°N, 15.4°W
打ち上げ日 Aug 30, 2025
運用期間 1 year
タイプ internet

技術仕様

分類 Payload
質量 575.00 kg
乾燥質量 530.00 kg
長さ 0.30 m
スパン 29.00 m
形状 ? Box + pan
製造者 SPXS
バスタイプ Starlink V2MO
フェーズステータス In Orbit
所有者/国 SPXS/US

Most Searched